Location: Derby
(52.9213°N, 1.4761°W)
Time: 16:43:33
(UTC+01:00)

A-11 Canister half - Pass Details

Date: 20 May 2025
Orbit: 1524 x 1684 km, 47.3° (Epoch: 14 June)

Event Time Altitude Azimuth Distance (km) Brightness Sun altitude
Rises 02:21:13 0° 285° (WNW) 4,815 11.6 -15.1°
Reaches altitude 10° 02:24:46 10° 276° (W) 3,851 10.9 -14.9°
Maximum altitude 02:32:50 30° 220° (SW) 2,634 9.7 -14.5°
Drops below altitude 10° 02:41:05 10° 165° (SSE) 3,925 10.7 -14.0°
Sets 02:44:46 0° 155° (SSE) 4,921 11.3 -13.8°
